Date,TemperatureHighF,TemperatureAvgF,TemperatureLowF,DewpointHighF,DewpointAvgF,DewpointLowF,HumidityHigh,HumidityAvg,HumidityLow,PressureMaxIn,PressureMinIn,WindSpeedMaxMPH,WindSpeedAvgMPH,GustSpeedMaxMPH,PrecipitationSumIn
2013-4-1,70.2,52.9,44.6,52.9,47.6,44.3,99,85,47,30.35,30.18,4,1,10,0.00
2013-4-2,59.7,48.5,41.5,50.0,45.7,41.3,99,91,69,30.40,30.35,4,1,8,0.00
2013-4-3,63.7,50.4,42.4,50.8,46.2,42.0,99,88,57,30.40,30.30,5,1,8,0.00
2013-4-4,53.4,52.4,51.4,53.1,52.1,51.2,99,99,99,29.89,29.83,7,3,18,0.91
2013-4-5,58.6,51.4,46.9,52.7,49.7,46.7,99,95,74,30.05,29.89,9,2,21,1.11
2013-4-6,59.9,48.9,43.7,49.4,45.7,42.2,99,90,60,30.10,29.86,6,2,21,0.47
2013-4-7,49.1,43.8,38.8,46.8,43.1,38.6,99,97,91,30.09,29.74,4,0,11,1.02
2013-4-8,59.9,47.0,37.9,51.9,45.0,37.7,99,93,68,30.47,30.09,4,0,8,0.05
2013-4-9,60.4,48.2,40.8,47.0,43.5,40.6,99,85,59,30.54,30.35,5,1,13,0.00
2013-4-10,67.1,52.9,43.7,56.1,48.1,42.5,99,85,57,30.46,30.10,8,2,19,0.51
2013-4-11,43.5,41.3,40.1,43.3,41.1,39.8,99,99,99,30.47,30.45,1,0,2,0.00
2013-4-12,43.9,42.8,41.4,43.6,42.5,41.1,99,99,99,29.56,29.50,4,1,8,0.24
2013-4-13,61.5,44.0,31.5,45.9,39.4,31.2,99,86,48,29.82,29.56,5,1,12,0.05
2013-4-14,58.1,44.1,34.3,46.8,39.1,34.1,99,85,51,29.83,29.75,6,1,13,0.00
2013-4-15,61.9,45.6,32.7,47.6,38.5,32.5,99,80,50,30.01,29.77,6,1,12,0.00
2013-4-16,63.5,46.8,33.1,47.9,35.6,23.7,99,73,26,30.23,30.01,8,2,17,0.00
2013-4-17,66.9,47.1,35.6,46.6,38.7,34.2,96,77,40,30.28,30.22,4,1,10,0.00
2013-4-18,50.0,49.5,49.3,48.6,48.1,47.4,97,95,92,30.46,30.40,5,3,14,0.00
2013-4-19,50.0,49.3,47.3,49.7,49.0,47.0,99,99,99,30.39,30.38,1,0,6,0.39
2013-4-20,57.0,47.1,43.3,52.2,46.6,43.1,99,98,82,30.48,30.39,2,0,5,0.01
2013-4-21,55.4,46.3,37.8,50.9,44.7,37.5,99,94,76,30.56,30.43,4,1,10,0.05
2013-4-22,64.8,48.1,33.8,48.3,33.2,17.4,99,66,20,30.74,30.57,6,2,14,0.02
2013-4-23,44.1,36.4,32.5,38.8,34.5,32.3,99,93,81,30.64,30.50,1,0,2,0.00
2013-4-24,42.8,40.7,38.7,39.0,38.2,37.1,95,91,86,30.52,30.51,1,0,2,0.00
2013-4-25,72.9,56.8,47.5,47.8,46.2,43.2,92,71,37,30.36,30.28,2,0,4,0.00
2013-4-26,73.0,54.8,42.3,54.3,47.7,42.0,99,81,41,30.47,30.36,4,1,10,0.00
2013-4-27,62.4,53.5,47.1,51.1,47.7,45.4,99,82,64,30.41,30.34,7,2,19,0.00
2013-4-28,61.9,51.9,46.2,53.8,47.8,42.0,99,87,62,30.42,30.12,6,2,18,0.05
2013-4-29,67.8,52.2,41.9,47.8,42.0,34.6,99,73,35,30.36,30.10,8,1,13,0.00
2013-4-30,58.8,46.0,33.4,43.7,38.2,33.2,99,77,47,30.66,30.36,5,1,11,0.00